User: anonymous
Location: Vancouver
(49.2500°N, 123.1330°W)
Time: 10:57:55
(UTC-07:00)
Language:

ERS-2 - Orbit

View from above orbital plane
View from above orbital plane
View from above satellite
View from above satellite

Ground track
Ground track

The orbit data is extracted from the following two-line orbital elements,

1 23560U 95021A   14292.49740059  .00013526  00000-0  80216-3 0  1381
2 23560 098.5516 147.4330 0004527 006.2998 053.1719 15.11501417 28031
Epoch (UTC): 19 October 2014 11:56:15
Eccentricity: 0.0004527
inclination: 98.5516°
perigee height: 528 km
apogee height: 535 km
right ascension of ascending node: 147.4330°
argument of perigee: 6.2998°
revolutions per day: 15.11501417
mean anomaly at epoch: 53.1719°
orbit number at epoch: 2803

The dashed part of the orbit path shows where the satellite is in the earth's shadow,  

DLR